Annette Island, AK

6:37 PM AKDT on June 26, 2017 (GMT -0800)
Annette Island

Weather History for PANT - March, 2014

Change the Weather History Date:

Thursday, March 13, 2014

  Actual Average Record
Temperature  
Mean Temperature 39 °F 39 °F  
Max Temperature 42 °F 44 °F 57 °F (1979)
Min Temperature 36 °F 34 °F 20 °F (1997)
Degree Days  
Heating Degree Days 26 26  
Month to date heating degree days 411 343  
Since 1 July heating degree days 4900 4881  
Cooling Degree Days 0    
Month to date cooling degree days 0  
Year to date cooling degree days 0  
Moisture  
Dew Point 35 °F    
Average Humidity 0    
Maximum Humidity 0    
Minimum Humidity 0    
Precipitation  
Precipitation 0.26 in 0.26 in 2.34 in (1966)
Month to date precipitation 5.12 3.24  
Year to date precipitation 17.22 21.28  
Snow  
Snow 0.00 in 0.20 in 2.60 in (2007)
Month to date snowfall 0.0 3.4  
Since 1 July snowfall 25.1 29.9  
Snow Depth 0.00 in    
Sea Level Pressure  
Sea Level Pressure 29.87 in    
Wind  
Wind Speed 12 mph (ESE)    
Max Wind Speed 21 mph    
Max Gust Speed 27 mph    
Visibility 10 miles    
Events Rain    
T = Trace of Precipitation, MM = Missing Value Source: NWS Daily Summary

Daily Weather History Graph

Daily Weather History Graph

Search for Another Location

Airport or City:

Trip Planner

Search our weather history database for the weather conditions in past years. The results will help you decide how hot, cold, wet, or windy it might be!

Date:

Astronomy

Mar. 13, 2014 Rise Set
Actual Time 7:05 AM AKDT 6:46 PM AKDT
Civil Twilight 6:29 AM AKDT 7:22 PM AKDT
Nautical Twilight 5:47 AM AKDT 8:05 PM AKDT
Astronomical Twilight 5:03 AM AKDT 8:49 PM AKDT
Moon 4:00 PM AKDT (3/13) 5:38 AM AKDT (3/13)
Length of Visible Light 12h 52m
Length of Day
11h 40m
Waxing Gibbous, 92% of the Moon is Illuminated
Mar 13
Waxing Gibbous
Mar 16
Full
Mar 23
Last Quarter
Mar 30
New
Apr 7
First Quarter

Hourly Weather History & Observations

Time (AKDT) Temp. Windchill Dew Point Humidity Pressure Visibility Wind Dir Wind Speed Gust Speed Precip Events Conditions
12:53 AM 36.0 °F 32.1 °F 35.1 °F 97% 30.15 in 10.0 mi SE 4.6 mph - N/A   Clear
1:53 AM 37.9 °F 32.7 °F 36.0 °F 93% 30.14 in 10.0 mi ESE 6.9 mph - N/A   Overcast
2:41 AM 39.0 °F 32.8 °F 37.0 °F 93% 30.12 in 10.0 mi ESE 9.2 mph - N/A   Overcast
2:53 AM 39.0 °F 33.4 °F 37.0 °F 93% 30.12 in 10.0 mi ESE 8.1 mph - N/A   Overcast
3:39 AM 37.9 °F 32.1 °F 37.0 °F 97% 30.09 in 10.0 mi ESE 8.1 mph - N/A   Overcast
3:53 AM 37.9 °F 31.5 °F 37.0 °F 97% 30.09 in 10.0 mi ESE 9.2 mph - N/A   Scattered Clouds
4:46 AM 37.9 °F 30.9 °F 37.0 °F 97% 30.07 in 10.0 mi ESE 10.4 mph - N/A   Mostly Cloudy
4:53 AM 37.9 °F 30.9 °F 37.0 °F 97% 30.08 in 10.0 mi ESE 10.4 mph - N/A   Overcast
5:53 AM 39.0 °F 31.4 °F 37.0 °F 93% 30.06 in 10.0 mi ESE 12.7 mph - N/A   Overcast
6:53 AM 39.0 °F 32.8 °F 37.0 °F 93% 30.03 in 10.0 mi ESE 9.2 mph 16.1 mph 0.00 in   Overcast
7:25 AM 39.0 °F 32.3 °F 37.0 °F 93% 30.01 in 10.0 mi ESE 10.4 mph - N/A   Overcast
7:53 AM 39.0 °F 31.8 °F 37.0 °F 93% 30.01 in 10.0 mi ESE 11.5 mph - N/A   Overcast
8:53 AM 39.0 °F 31.8 °F 36.0 °F 89% 29.99 in 10.0 mi ESE 11.5 mph - N/A   Overcast
9:53 AM 39.9 °F 31.8 °F 36.0 °F 86% 29.98 in 10.0 mi ESE 15.0 mph - N/A   Overcast
10:07 AM 39.9 °F 32.1 °F 36.0 °F 86% 29.97 in 10.0 mi SE 13.8 mph - N/A   Overcast
10:29 AM 39.9 °F 32.9 °F 36.0 °F 86% 29.96 in 10.0 mi SE 11.5 mph - N/A   Overcast
10:53 AM 41.0 °F 33.1 °F 35.1 °F 79% 29.96 in 10.0 mi SE 15.0 mph 20.7 mph N/A   Overcast
11:53 AM 41.0 °F 33.1 °F 34.0 °F 76% 29.93 in 10.0 mi SE 15.0 mph - N/A   Overcast
12:53 PM 41.0 °F 32.5 °F 34.0 °F 76% 29.89 in 10.0 mi SE 17.3 mph - 0.00 in   Overcast
1:53 PM 39.9 °F 32.1 °F 36.0 °F 86% 29.87 in 10.0 mi SE 13.8 mph - 0.00 in Rain Light Rain
2:53 PM 37.9 °F 30.0 °F 37.0 °F 97% 29.83 in 10.0 mi ESE 12.7 mph - 0.02 in Rain Light Rain
3:53 PM 37.9 °F 31.5 °F 37.0 °F 97% 29.79 in 10.0 mi ESE 9.2 mph - 0.02 in Rain Light Rain
4:36 PM 39.0 °F 31.0 °F 36.0 °F 89% 29.75 in 10.0 mi ESE 13.8 mph 21.9 mph 0.01 in   Overcast
4:53 PM 39.0 °F 31.8 °F 36.0 °F 89% 29.74 in 10.0 mi ESE 11.5 mph - 0.01 in   Overcast
5:53 PM 39.9 °F 32.9 °F 33.1 °F 77% 29.69 in 10.0 mi ESE 11.5 mph 20.7 mph N/A   Overcast
6:53 PM 41.0 °F 33.5 °F 30.9 °F 67% 29.64 in 10.0 mi ESE 13.8 mph 20.7 mph 0.00 in   Mostly Cloudy
7:53 PM 41.0 °F 33.1 °F 30.9 °F 67% 29.58 in 10.0 mi ESE 15.0 mph 25.3 mph 0.00 in Rain Light Rain
8:53 PM 39.9 °F 34.5 °F 32.0 °F 73% 29.53 in 10.0 mi ESE 8.1 mph 18.4 mph 0.00 in Rain Light Rain
9:09 PM 39.0 °F 32.8 °F 33.1 °F 79% 29.52 in 10.0 mi ESE 9.2 mph 19.6 mph 0.00 in Rain Light Rain
9:53 PM 37.9 °F 30.9 °F 34.0 °F 86% 29.49 in 9.0 mi ESE 10.4 mph 17.3 mph 0.02 in Rain Light Rain
10:53 PM 37.9 °F 32.7 °F 35.1 °F 89% 29.44 in 10.0 mi ESE 6.9 mph - 0.03 in Rain Light Rain
11:53 PM 37.0 °F 28.9 °F 35.1 °F 93% 29.42 in 9.0 mi ESE 12.7 mph 21.9 mph 0.07 in Rain Rain